This is the latest recevied weather packets stored in our database for station/object DG3OBU-6. If no packets are shown the sender has not sent any weather packets the latest 10 day(s).
| Time | Temp. | Humidity | Pressure | Rain* | Wind** | Luminosity | Snow |
|---|---|---|---|---|---|---|---|
| 1778235003 | 13.89° C | 63% | 1019 hPa | 0 mm | - | - | - |
| 1778234702 | 13.89° C | 62% | 1019 hPa | 0 mm | - | - | - |
| 1778234402 | 13.89° C | 63% | 1019 hPa | 0 mm | - | - | - |
| 1778234102 | 13.33° C | 63% | 1019.1 hPa | 0 mm | - | - | - |
| 1778233802 | 13.33° C | 63% | 1019 hPa | 0 mm | - | - | - |
| 1778233502 | 13.33° C | 62% | 1019 hPa | 0 mm | - | - | - |
| 1778233202 | 13.89° C | 60% | 1019.1 hPa | 0 mm | - | - | - |
| 1778232902 | 13.89° C | 59% | 1019 hPa | 0 mm | - | - | - |
| 1778232602 | 14.44° C | 59% | 1019.1 hPa | 0 mm | - | - | - |
| 1778232302 | 14.44° C | 59% | 1019.1 hPa | 0 mm | - | - | - |
| 1778232003 | 14.44° C | 58% | 1019.1 hPa | 0 mm | - | - | - |
| 1778231703 | 14.44° C | 55% | 1019.2 hPa | 0 mm | - | - | - |
| 1778231403 | 13.89° C | 58% | 1019.1 hPa | 0 mm | - | - | - |
| 1778231103 | 13.89° C | 56% | 1019.1 hPa | 0 mm | - | - | - |
| 1778230803 | 13.89° C | 58% | 1019.1 hPa | 0 mm | - | - | - |
| 1778230503 | 13.89° C | 56% | 1019.2 hPa | 0 mm | - | - | - |
| 1778230203 | 13.89° C | 58% | 1019.1 hPa | 0 mm | - | - | - |
| 1778229903 | 13.89° C | 59% | 1019 hPa | 0 mm | - | - | - |
| 1778229603 | 13.89° C | 61% | 1019.1 hPa | 0 mm | - | - | - |
| 1778229303 | 13.33° C | 64% | 1019.1 hPa | 0 mm | - | - | - |
| 1778229003 | 13.33° C | 63% | 1019.1 hPa | 0 mm | - | - | - |
| 1778228703 | 13.33° C | 67% | 1019.1 hPa | 0 mm | - | - | - |
| 1778228403 | 12.78° C | 67% | 1019.1 hPa | 0 mm | - | - | - |
| 1778228102 | 13.33° C | 68% | 1019.1 hPa | 0 mm | - | - | - |
| 1778227802 | 12.78° C | 69% | 1019.1 hPa | 0 mm | - | - | - |
* Rain latest hour (hover to see other rain measurements)
** Current wind speed in m/s (hover to see current wind gust speed)